Volver al catálogo

STARLINK-32666

ActivoComunicacionesVLEO
NORAD 62214·PAYLOAD·🇺🇸 United States

Lanzado Dec 4, 2024 desde Cape Canaveral Space Force Station

Loading…

Próximos Pases (próximas 24 horas)

TLE

ActualizadoSource: CelesTrak SupGP

Época: Sep 15, 2026, 03:16 UTC

1 62214C 24229Y   26258.13659722 -.00009310  00000+0 -33715-3 0  2586
2 62214  42.9998 281.1983 0001299 266.6174 334.9098 15.27588069    11

Sigue STARLINK-32666 en tiempo real con AllMySat

Download on the App Store